This is the latest recevied weather packets stored in our database for station/object 9W2CHF-4. If no packets are shown the sender has not sent any weather packets the latest 10 day(s).
| Time | Temp. | Humidity | Pressure | Rain* | Wind** | Luminosity | Snow |
|---|---|---|---|---|---|---|---|
| 1777536504 | 34.44° C | 64% | 1008.1 hPa | - | - | - | - |
| 1777535604 | 34.44° C | 72% | 1008.1 hPa | - | - | - | - |
| 1777534704 | 34.44° C | 71% | 1008.4 hPa | - | - | - | - |
| 1777533804 | 34.44° C | 68% | 1008.5 hPa | - | - | - | - |
| 1777532903 | 35.56° C | 64% | 1008.7 hPa | - | - | - | - |
| 1777531103 | 35.56° C | 63% | 1008.9 hPa | - | - | - | - |
| 1777530203 | 35.56° C | 64% | 1009.1 hPa | - | - | - | - |
| 1777529303 | 35.56° C | 64% | 1009.3 hPa | - | - | - | - |
| 1777528402 | 35.56° C | 67% | 1009.7 hPa | - | - | - | - |
| 1777527502 | 35.56° C | 67% | 1009.7 hPa | - | - | - | - |
| 1777526601 | 35.56° C | 66% | 1010.1 hPa | - | - | - | - |
| 1777525701 | 35.56° C | 68% | 1010.2 hPa | - | - | - | - |
| 1777524801 | 35° C | 69% | 1010.4 hPa | - | - | - | - |
| 1777523901 | 35° C | 68% | 1010.5 hPa | - | - | - | - |
| 1777523001 | 35° C | 71% | 1010.8 hPa | - | - | - | - |
| 1777522101 | 34.44° C | 73% | 1011 hPa | - | - | - | - |
| 1777521201 | 34.44° C | 72% | 1011.1 hPa | - | - | - | - |
| 1777520301 | 34.44° C | 73% | 1011 hPa | - | - | - | - |
| 1777519401 | 33.89° C | 75% | 1011.1 hPa | - | - | - | - |
| 1777518501 | 33.89° C | 75% | 1011.2 hPa | - | - | - | - |
| 1777517601 | 33.89° C | 76% | 1011.3 hPa | - | - | - | - |
| 1777516701 | 33.89° C | 76% | 1011.3 hPa | - | - | - | - |
| 1777515800 | 33.89° C | 77% | 1011.3 hPa | - | - | - | - |
| 1777514900 | 33.89° C | 77% | 1011.3 hPa | - | - | - | - |
| 1777513999 | 33.89° C | 78% | 1011.2 hPa | - | - | - | - |
* Rain since midnight (hover to see other rain measurements)
** Current wind speed in m/s (hover to see current wind gust speed)